Wind_Speed
29 29 29 28 27 28 29 29 30 29 28 27 27 27 28 27 27 28 28 28 28 28 27 27 27 27 27 28 28 28 28 28 29 29 30 31 31 31 32 33 34 34 35 35
31 30 31 30 29 29 29 29 30 29 28 27 28 28 28 28 27 27 27 27 27 27 27 27 27 27 28 28 28 28 29 29 29 29 30 31 31 32 32 33 33 33 34 34
32 31 32 32 29 29 29 28 29 28 27 27 28 29 29 29 28 28 27 27 27 27 27 27 28 27 27 27 27 28 28 29 30 30 31 31 32 33 33 33 33 34 34 35
30 30 32 29 28 28 29 29 29 28 27 27 28 28 29 29 29 28 27 27 27 27 27 28 28 28 27 26 26 27 28 29 29 30 31 31 32 32 33 34 34 34 35 35
29 30 30 28 27 27 28 28 28 27 27 28 28 28 27 27 28 28 27 27 27 27 28 27 27 27 27 27 27 27 28 28 28 29 30 30 32 32 33 33 34 34 35 34
29 29 29 27 26 27 28 28 27 27 27 28 28 27 26 26 26 27 27 27 27 27 27 27 27 27 27 28 28 28 28 28 29 30 30 30 31 32 33 33 34 34 34 34
28 28 28 27 26 26 27 27 27 27 26 27 27 26 25 25 26 27 27 27 27 27 27 27 27 27 28 28 28 29 29 29 29 30 30 30 31 32 33 34 35 35 34 33
27 27 27 26 26 25 26 27 28 27 26 26 25 25 25 25 26 27 27 27 27 27 27 27 28 28 28 28 28 29 29 29 30 30 30 31 31 32 32 33 33 33 32 32
27 27 26 26 26 26 26 27 27 27 26 25 25 25 25 25 26 27 27 27 27 26 27 28 28 28 28 28 28 29 29 30 30 30 31 32 31 30 30 30 30 30 30 30
26 25 26 26 26 27 27 28 28 28 27 27 27 26 26 26 26 26 26 26 26 26 27 28 28 28 29 29 29 29 29 30 30 30 30 30 30 29 29 28 29 29 29 28
26 25 26 25 25 26 27 27 27 27 26 27 26 26 26 26 26 26 25 25 26 26 27 27 28 28 28 29 29 29 28 28 28 28 28 28 28 27 27 27 27 27 26 26
25 25 26 25 25 26 26 26 26 26 25 25 26 25 25 25 24 24 23 23 24 25 26 26 27 27 26 27 27 27 26 27 27 27 27 26 25 25 25 25 24 23 22 22
24 24 25 25 26 26 26 25 24 24 23 23 24 24 24 24 23 23 23 23 23 23 23 24 24 24 25 26 26 26 26 26 26 25 25 24 23 22 21 22 22 21 21 20
25 25 25 25 24 25 25 24 23 22 22 22 23 23 23 23 23 23 22 22 22 23 23 23 23 24 24 25 25 25 25 24 24 23 23 22 21 20 19 20 19 18 18 18
24 24 24 23 23 23 23 23 22 21 22 22 22 22 22 22 22 22 22 22 23 23 23 23 23 24 24 24 24 23 23 23 23 22 21 20 20 19 19 18 17 17 16 16
22 22 22 22 22 21 21 22 22 21 21 21 21 21 21 21 21 21 21 22 22 23 23 23 23 23 22 22 22 22 22 22 21 20 19 19 19 18 18 17 17 16 15 15
20 20 21 20 21 21 21 21 21 20 20 21 21 20 20 20 20 20 21 21 22 22 22 22 22 22 21 21 21 21 20 20 19 19 19 18 18 17 17 17 17 16 16 15
20 20 19 19 20 20 20 20 20 19 19 19 20 20 19 20 20 20 20 20 21 21 21 21 21 21 21 21 21 20 19 19 19 18 17 17 16 16 16 16 16 16 16 15
19 19 18 18 18 18 18 18 19 19 19 18 19 19 19 20 20 19 20 20 20 20 20 21 21 21 21 21 20 19 19 18 18 18 17 16 16 16 16 16 16 16 16 16
18 18 18 18 19 19 18 18 18 18 18 18 18 18 19 19 19 20 19 19 19 19 20 20 21 21 21 20 19 19 18 18 18 18 18 17 17 16 16 16 16 16 16 16
17 17 17 17 18 18 18 18 18 18 18 18 18 18 18 18 18 19 18 18 19 19 19 19 20 20 20 20 20 19 19 19 18 18 18 18 17 17 16 16 16 16 16 16
18 17 17 17 17 17 17 17 17 17 18 18 18 18 18 18 18 18 18 19 19 19 19 19 19 19 19 19 19 19 19 19 19 18 18 17 17 17 17 17 17 17 17 17
19 18 17 17 17 17 17 17 17 17 17 18 18 18 18 18 18 18 18 19 19 19 19 19 20 19 19 19 18 19 19 19 18 18 18 17 17 17 18 18 18 18 18 18
18 17 17 17 17 16 16 16 17 17 18 18 18 18 18 18 18 19 19 19 20 20 21 21 20 20 20 19 19 19 19 18 18 18 18 17 17 17 18 18 19 18 18 19
19 18 18 17 17 17 16 16 17 17 17 18 18 18 18 18 18 19 19 20 21 21 22 22 21 21 20 20 20 19 19 18 18 18 18 17 17 17 18 18 19 19 18 18
19 19 18 18 18 18 17 17 18 18 18 18 18 19 19 19 19 19 20 21 21 22 22 22 21 21 20 20 20 20 19 18 18 18 17 17 17 17 17 18 18 18 18 18
20 19 19 19 19 19 18 18 19 18 18 18 19 19 19 19 20 20 21 22 22 22 22 22 21 20 20 20 19 19 19 18 18 17 17 16 16 16 16 16 16 16 16 16
Wind_Direction
257 261 263 264 266 268 269 271 272 273 273 272 271 271 273 273 273 273 273 271 270 272 273 274 275 277 278 278 278 277 276 274 274 274 273 274 275 277 277 276 275 274 274 273
257 260 263 263 265 268 271 272 273 273 272 273 271 271 273 273 273 273 273 272 271 271 272 274 275 277 279 280 279 277 277 277 276 275 275 275 277 278 279 278 277 276 276 275
258 260 262 264 266 269 271 272 273 274 275 274 272 271 271 272 272 272 272 273 271 268 269 272 275 277 280 280 279 279 278 278 277 276 276 276 278 278 278 278 277 276 276 276
260 260 262 266 267 269 271 272 274 274 274 274 274 273 273 271 270 270 271 271 270 269 270 272 274 276 278 280 280 280 280 280 279 278 278 278 278 278 278 278 278 277 277 278
262 264 266 267 268 271 272 271 272 273 274 274 274 273 274 272 270 270 271 271 271 271 272 273 275 276 277 279 281 282 282 282 282 281 279 279 279 280 279 278 278 277 278 278
263 265 268 268 270 271 272 271 272 274 275 275 274 274 274 273 272 271 271 272 272 272 273 273 274 276 277 279 281 282 283 283 283 282 280 280 281 281 281 280 279 278 279 279
261 264 266 269 270 271 272 275 275 274 276 275 273 274 275 273 272 272 271 271 271 272 271 272 273 274 276 279 281 282 283 284 284 282 279 280 281 281 281 280 279 278 278 277
259 262 267 269 270 271 273 274 274 273 274 274 272 274 275 275 274 273 272 271 272 271 271 271 274 275 276 278 281 283 283 284 284 283 282 282 283 283 282 282 281 279 277 275
260 264 267 269 270 271 274 275 273 271 270 272 273 274 276 275 274 273 272 272 272 271 271 271 274 275 276 278 281 283 284 284 284 284 284 284 284 283 282 282 281 279 278 275
261 265 268 269 269 269 271 273 274 271 270 271 273 274 276 277 276 274 271 270 270 270 270 272 274 277 278 280 282 284 284 285 284 285 286 285 284 283 282 282 281 279 279 276
264 267 267 269 270 269 270 272 273 273 272 271 272 274 275 276 277 276 272 270 271 272 272 273 276 279 281 282 283 284 284 285 285 285 285 285 283 283 282 282 281 280 279 276
265 266 268 269 269 269 271 274 275 275 273 272 271 272 274 275 275 274 273 273 274 274 274 276 278 279 280 281 283 284 284 285 285 285 284 284 283 283 283 281 280 280 279 276
265 267 269 269 268 269 271 274 275 275 274 272 271 271 272 271 271 273 273 274 275 277 278 279 279 280 281 283 284 285 284 283 284 285 283 283 282 283 284 281 280 280 278 276
266 268 269 269 269 268 269 270 272 273 271 271 272 272 272 271 271 272 272 272 274 277 280 281 281 282 284 285 285 286 285 283 283 284 283 281 280 280 282 282 280 279 278 277
267 268 268 266 266 267 269 269 269 271 272 272 274 272 271 270 270 271 271 272 275 278 280 282 284 284 286 286 286 286 286 284 283 283 281 279 278 278 278 279 279 276 276 276
265 265 265 264 263 265 269 271 272 272 273 273 273 273 270 270 271 272 272 274 277 280 281 283 285 286 286 287 285 285 285 285 284 282 278 276 276 276 275 274 275 274 272 272
261 262 264 264 263 266 268 271 273 275 275 274 273 273 270 270 272 273 273 275 278 280 281 283 284 285 286 285 285 285 284 283 282 281 278 276 275 274 273 270 270 271 268 268
263 264 266 265 265 267 268 270 272 274 274 275 274 272 271 271 274 275 276 277 279 281 282 283 284 283 283 283 283 284 283 281 279 278 278 277 277 275 272 270 269 269 266 265
266 266 265 264 265 267 267 268 269 270 273 273 273 272 272 274 276 277 279 280 281 282 283 283 283 282 281 281 281 281 282 281 279 276 277 277 278 276 272 268 268 267 264 263
266 265 265 265 265 266 267 267 268 270 272 273 273 273 272 274 277 278 279 280 283 285 285 284 283 283 281 279 279 280 281 282 279 276 275 275 276 275 272 269 268 265 261 260
263 263 264 264 265 265 265 266 267 269 271 273 273 273 272 273 275 276 277 279 283 285 285 285 285 284 280 278 277 279 280 281 280 277 275 274 273 272 270 268 266 264 261 259
261 262 263 264 266 266 266 266 268 270 271 273 273 274 274 273 274 276 278 280 283 284 285 285 286 286 283 279 278 278 281 281 279 278 275 273 271 267 266 266 265 264 262 261
262 263 265 266 266 266 265 265 266 269 272 273 274 274 274 274 276 278 280 282 284 286 287 287 288 287 285 282 280 280 280 280 279 278 276 273 270 266 265 264 263 263 263 262
262 262 264 266 266 266 266 266 267 270 274 275 275 275 274 275 277 280 283 284 286 288 289 289 289 287 285 282 281 281 281 280 279 278 276 272 270 267 265 263 263 263 263 262
261 261 263 265 264 264 266 268 269 272 276 278 277 277 276 277 280 283 286 287 288 289 289 289 288 286 284 282 281 280 280 279 278 277 274 272 272 271 267 265 264 264 263 262
262 262 263 264 263 263 266 268 269 272 277 279 279 279 277 278 282 286 288 289 290 289 289 288 287 285 283 282 280 279 277 276 277 277 275 273 273 273 270 266 264 262 261 261
262 261 262 262 262 263 265 268 270 273 275 277 280 280 279 280 283 285 288 289 290 289 288 287 286 284 282 280 279 277 275 274 274 275 274 274 274 274 273 269 264 261 258 258
Height
5592 5593 5593 5594 5595 5595 5594 5594 5593 5594 5594 5594 5594 5593 5592 5591 5591 5590 5590 5589 5589 5588 5588 5587 5586 5584 5583 5582 5581 5579 5578 5578 5577 5576 5575 5574 5573 5572 5571 5570 5568 5568 5567 5566
5583 5584 5584 5584 5586 5586 5586 5586 5585 5585 5585 5586 5584 5584 5583 5583 5582 5581 5581 5581 5580 5580 5579 5578 5577 5576 5575 5573 5572 5571 5570 5569 5567 5566 5566 5565 5564 5563 5561 5560 5558 5557 5557 5556
5574 5576 5574 5575 5579 5578 5578 5578 5577 5576 5578 5576 5575 5575 5574 5573 5573 5573 5572 5572 5571 5571 5570 5569 5568 5567 5566 5565 5563 5562 5561 5560 5559 5557 5556 5555 5554 5553 5552 5550 5548 5547 5546 5545
5565 5567 5565 5571 5570 5570 5569 5569 5569 5568 5568 5567 5566 5565 5565 5564 5564 5564 5564 5563 5563 5562 5562 5561 5560 5559 5558 5556 5555 5554 5552 5551 5550 5548 5547 5546 5545 5543 5542 5540 5539 5537 5536 5535
5556 5556 5557 5560 5561 5561 5560 5560 5560 5559 5559 5558 5556 5556 5556 5555 5555 5555 5554 5554 5554 5553 5553 5552 5551 5550 5549 5548 5546 5545 5544 5542 5540 5539 5538 5536 5535 5533 5531 5530 5528 5527 5526 5524
5548 5548 5549 5553 5553 5552 5552 5551 5552 5551 5550 5549 5548 5548 5549 5547 5546 5546 5545 5545 5545 5544 5544 5543 5542 5542 5541 5539 5538 5537 5535 5533 5532 5530 5528 5527 5525 5524 5522 5520 5518 5517 5515 5514
5540 5539 5541 5543 5544 5543 5544 5544 5542 5541 5541 5540 5539 5539 5539 5538 5537 5537 5536 5536 5536 5536 5535 5534 5534 5533 5532 5531 5530 5528 5526 5524 5523 5521 5519 5518 5516 5514 5512 5510 5508 5506 5505 5504
5531 5531 5535 5535 5534 5535 5535 5534 5532 5532 5531 5531 5531 5530 5530 5529 5528 5528 5528 5527 5527 5527 5526 5526 5525 5524 5523 5522 5521 5519 5517 5515 5513 5512 5510 5508 5506 5504 5502 5500 5498 5496 5495 5494
5524 5527 5526 5526 5525 5526 5525 5525 5523 5523 5523 5522 5522 5522 5521 5521 5520 5519 5519 5519 5518 5518 5518 5517 5516 5516 5515 5513 5512 5510 5508 5506 5504 5502 5500 5498 5496 5494 5492 5490 5488 5486 5486 5485
5516 5517 5517 5517 5516 5517 5516 5515 5514 5514 5514 5514 5514 5514 5513 5513 5512 5511 5510 5510 5510 5509 5509 5509 5508 5507 5506 5504 5503 5501 5499 5497 5495 5493 5490 5488 5486 5484 5482 5480 5479 5477 5476 5476
5507 5509 5508 5508 5508 5508 5507 5507 5506 5506 5506 5506 5505 5505 5505 5504 5503 5503 5502 5501 5501 5501 5501 5500 5499 5498 5497 5495 5494 5492 5490 5488 5485 5483 5481 5479 5477 5475 5474 5472 5470 5469 5468 5467
5500 5501 5500 5501 5500 5499 5499 5499 5499 5498 5498 5497 5497 5497 5496 5496 5495 5495 5494 5494 5493 5493 5492 5492 5491 5489 5488 5486 5484 5483 5481 5479 5477 5475 5473 5471 5469 5467 5465 5464 5463 5461 5460 5459
5491 5491 5491 5491 5491 5491 5491 5491 5490 5490 5490 5490 5489 5489 5488 5488 5488 5487 5487 5487 5486 5485 5484 5483 5482 5481 5479 5478 5476 5474 5472 5471 5469 5467 5465 5463 5461 5460 5459 5457 5455 5454 5453 5453
5482 5482 5482 5483 5483 5483 5483 5483 5482 5482 5482 5482 5482 5481 5481 5480 5480 5480 5479 5479 5479 5478 5477 5476 5474 5473 5471 5469 5468 5466 5464 5462 5461 5459 5457 5455 5454 5453 5452 5451 5450 5449 5448 5447
5474 5474 5474 5475 5475 5475 5475 5475 5475 5475 5475 5475 5474 5473 5473 5473 5473 5472 5472 5471 5471 5470 5469 5468 5467 5465 5463 5461 5460 5458 5456 5455 5453 5451 5450 5448 5448 5447 5446 5445 5445 5444 5444 5443
5466 5466 5466 5467 5468 5468 5468 5468 5468 5468 5468 5467 5467 5466 5466 5466 5465 5465 5465 5464 5464 5463 5462 5460 5459 5457 5456 5454 5452 5451 5449 5447 5446 5444 5443 5442 5441 5440 5440 5439 5439 5439 5438 5438
5459 5459 5460 5460 5461 5461 5461 5461 5461 5461 5461 5460 5460 5459 5459 5459 5459 5458 5458 5457 5456 5455 5454 5453 5452 5450 5448 5447 5445 5444 5442 5441 5439 5438 5437 5436 5435 5434 5434 5434 5433 5433 5433 5433
5452 5453 5453 5453 5454 5454 5454 5454 5454 5454 5454 5453 5453 5453 5453 5453 5452 5452 5451 5450 5449 5448 5447 5446 5444 5443 5441 5440 5438 5437 5436 5434 5433 5432 5431 5430 5429 5429 5428 5428 5428 5428 5428 5428
5446 5446 5447 5447 5447 5447 5448 5448 5448 5448 5448 5447 5447 5447 5446 5446 5446 5445 5444 5443 5442 5441 5440 5439 5437 5436 5435 5433 5432 5431 5429 5428 5427 5426 5425 5425 5424 5423 5423 5423 5423 5423 5423 5423
5440 5440 5441 5441 5441 5441 5441 5441 5441 5441 5441 5441 5441 5440 5440 5439 5439 5438 5437 5437 5436 5434 5433 5432 5431 5429 5428 5426 5425 5424 5423 5422 5421 5420 5419 5419 5418 5418 5417 5417 5417 5418 5418 5418
5434 5434 5435 5435 5435 5435 5435 5435 5435 5435 5435 5434 5434 5434 5433 5433 5432 5432 5431 5430 5429 5428 5427 5425 5424 5422 5421 5420 5419 5418 5417 5416 5415 5414 5413 5413 5412 5412 5412 5412 5412 5412 5412 5413
5428 5428 5428 5428 5429 5429 5429 5429 5429 5429 5428 5428 5427 5427 5427 5426 5426 5425 5425 5424 5423 5422 5420 5419 5418 5416 5415 5413 5413 5412 5411 5409 5409 5408 5407 5406 5406 5406 5406 5406 5406 5406 5407 5407
5421 5422 5422 5422 5422 5422 5422 5422 5422 5422 5422 5422 5421 5421 5420 5420 5420 5419 5419 5418 5416 5415 5414 5412 5411 5410 5408 5407 5406 5405 5404 5403 5402 5401 5401 5400 5400 5400 5400 5400 5400 5401 5401 5402
5415 5415 5416 5416 5416 5416 5416 5416 5416 5416 5416 5415 5415 5415 5414 5414 5413 5413 5412 5411 5410 5408 5407 5406 5404 5403 5402 5401 5400 5399 5398 5397 5396 5395 5394 5394 5394 5394 5394 5394 5394 5395 5395 5396
5408 5409 5410 5410 5410 5410 5410 5410 5410 5410 5410 5409 5409 5409 5408 5408 5407 5406 5405 5404 5403 5401 5400 5399 5397 5396 5395 5394 5393 5392 5391 5391 5390 5389 5388 5388 5387 5387 5387 5387 5388 5388 5389 5389
5402 5402 5403 5403 5404 5404 5404 5404 5404 5404 5404 5403 5403 5402 5402 5401 5400 5399 5398 5397 5396 5394 5393 5392 5390 5389 5388 5387 5386 5386 5385 5384 5383 5383 5382 5382 5381 5381 5381 5381 5381 5382 5382 5383
5395 5396 5396 5397 5397 5398 5398 5398 5398 5398 5397 5397 5396 5396 5395 5395 5394 5392 5391 5390 5388 5387 5386 5384 5383 5382 5381 5380 5379 5379 5378 5378 5377 5377 5376 5376 5376 5375 5375 5375 5375 5376 5377 5377